Pila Airport

Jump to: basic info | weather | runways | comments

Related pages: nearby airports | nearby navaids | notams | map

Basic information (top)

Codes: EPPI
Location: lon 53.169998, lat 16.712500, elev 259 ft / 79 m msl
Status: small_airport

Weather (top)

Current conditions for Poznań-Ławica Airport 45nm (84km) S (rec'd 2015/03/03 08:30Z):

EPPO 030830Z 26012KT 9999 -DZ OVC007 02/00 Q1011

Airport forecast for Poznań-Ławica Airport 45nm (84km) S (rec'd 2015/03/03 06:33Z):

TAF EPPO 030530Z 0306/0406 27012KT 9999 SCT025 
      TEMPO 0306/0317 27015G25KT 3000 SHSN SHRASN BKN005 BKN012CB PROB30 
      TEMPO 0308/0313 27020G35KT 
      BECMG 0315/0317 21010KT 
      TEMPO 0321/0406 3000 SHRA SHSNRA BKN005 BKN013CB 
      BECMG 0322/0324 27015G30KT

Runways (top)

03/21: 7,876 x 195 ft (2,401 x 59 m) — other (PEM) — lighted

Latest comments (top)

No comments yet for Pila Airport

More... (top)

See also NOTAMs and nearby airports and navaids, or visit the Pila Airport page at the main OurAirports website..